Regional Weather Roundup
Issued by NWS

Home | Current Version | Previous Version | Text Only | Print | Product List | Glossary On
Versions: 1 2 3 4 5 6 7 8 9 10 11 12 13 14 15 16 17 18 19 20 21 22 23 24 25 26 27 28 29 30 31 32 33 34 35 36 37 38 39 40 41 42 43 44 45 46 47 48 49 50
000
ASUS43 KDMX 260906
RWRIA

WEATHER ROUNDUP FOR IOWA
NATIONAL WEATHER SERVICE DES MOINES IA
400 AM CDT MON JUN 26 2017

NOTE: "FAIR" INDICATES FEW OR NO CLOUDS BELOW 12,000 FEET WITH NO
SIGNIFICANT WEATHER AND/OR OBSTRUCTIONS TO VISIBILITY.

* - THESE STATIONS ARE NOT NWS STATIONS...THUS NOT UNDER NWS
QUALITY CONTROL.  THEY ALSO DO NOT REPORT WEATHER SUCH
AS PRECIPITATION OR FOG.

IAZ001>003-012>014-020>022-031>034-043>046-261000-
   NORTHWEST IOWA

CITY           SKY/WX    TMP DP  RH WIND       PRES   REMARKS
CARROLL *      DRIZZLE   55  52  88 E6        30.22S
CHEROKEE *     CLOUDY    53  53 100 CALM      30.22F
DENISON *      RAIN      54  50  87 N12       30.26R
LE MARS *      CLOUDY    54  52  94 VRB5      30.21F
ORANGE CITY *  CLOUDY    54  54 100 S5        30.20F
SHELDON *      CLOUDY    54  52  94 NE7G13    30.18S
SIOUX CITY     LGT RAIN  55  52  89 E14       30.20F
SPENCER        MOCLDY    54  52  93 SW5       30.19F
STORM LAKE *   CLOUDY    54  52  94 CALM      30.23R
$$

IAZ055>058-069>071-079>083-090>094-261000-
   SOUTHWEST IOWA

CITY           SKY/WX    TMP DP  RH WIND       PRES   REMARKS
ATLANTIC *     CLOUDY    54  52  94 CALM      30.20F
AUDUBON *      CLOUDY    54  50  87 CALM      30.22F
CLARINDA *       N/A     50  48  93 CALM      30.21R
COUNCIL BLFS * DRIZZLE   57  52  82 CALM      30.19F
CRESTON *      CLOUDY    55  46  71 N9        30.23R
HARLAN  *      CLOUDY    54  54 100 CALM      30.23F
LAMONI         CLEAR     56  46  69 W5        30.20R
RED OAK *      CLOUDY    54  52  94 CALM      30.21R
SHENANDOAH *   PTCLDY    52  50  93 S5        30.18F
$$

IAZ047>049-059>061-072>074-084-261000-
   CENTRAL IOWA

CITY           SKY/WX    TMP DP  RH WIND       PRES   REMARKS
AMES           LGT RAIN  57  53  86 N12       30.24R
ANKENY *       CLOUDY    54  52  94 S3        30.21F
BOONE *        HVY RAIN  55  52  88 N13       30.23R
CHARITON *     CLOUDY    52  48  87 W8        30.22R
DES MOINES     CLOUDY    59  50  72 CALM      30.20R
GRINNELL*      MOCLDY    55  49  82 W3        30.21S
KNOXVILLE *    CLOUDY    55  48  76 NW6       30.21R
MARSHALLTOWN   CLOUDY    55  51  86 W7        30.18S
NEWTON *       MOCLDY    55  46  71 CALM      30.20F
PELLA *        CLOUDY    55  52  88 W3        30.22R
PERRY *        MOCLDY    54  51  89 CALM      30.23R
$$

IAZ004>006-015-016-023>025-035-036-261000-
   NORTH CENTRAL IOWA

CITY           SKY/WX    TMP DP  RH WIND       PRES   REMARKS
ALGONA *       CLOUDY    55  55 100 W6        30.20S
CLARION *        N/A     55  55 100 W8        30.20S
ESTHERVILLE    MOCLDY    52  52 100 W7        30.18F
FORT DODGE *   CLOUDY    55  48  76 SW3       30.23S
MASON CITY     MOCLDY    53  48  83 W9        30.18S
FOREST CITY *  CLOUDY    54  43  66 CALM      30.17S
WEBSTER CITY * LGT RAIN  55  52  88 W10       30.20R
IOWA FALLS *   CLOUDY    56  52  88 W8        30.21R
$$

IAZ007>011-017>019-026>030-037>042-050>054-066-261000-
   NORTHEAST IOWA

CITY           SKY/WX    TMP DP  RH WIND       PRES   REMARKS
CEDAR RAPIDS   PTCLDY    50  47  89 W9        30.16R
CHARLES CITY * MOCLDY    52  48  87 W8        30.16R
CLINTON *      CLEAR     50  47  89 W7        30.14S
DECORAH *      PTCLDY    50  45  81 CALM      30.12S
DUBUQUE        PTCLDY    49  44  83 CALM      30.13R
MONTICELLO *   PTCLDY    48  46  93 CALM      30.14R
OELWEIN *      MOCLDY    50  46  87 W7        30.15F
WATERLOO       MOCLDY    55  47  74 W7        30.15S
$$

IAZ064-065-067-068-078-261000-
   EAST CENTRAL IOWA

CITY           SKY/WX    TMP DP  RH WIND       PRES   REMARKS
DAVENPORT      CLEAR     49  46  90 W3        30.15R
IOWA CITY      PTCLDY    53  45  74 CALM      30.18R
MT. PLEASANT * CLEAR     49  45  85 W3        30.18R
MUSCATINE *    CLEAR     54  46  76 CALM      30.17R
QUAD CITIES    CLEAR     51  46  83 CALM      30.15R
$$

IAZ062-063-075>077-085>089-095>099-261000-
   SOUTHEAST IOWA

CITY           SKY/WX    TMP DP  RH WIND       PRES   REMARKS
BURLINGTON     CLEAR     51  46  83 CALM      30.17R
FAIRFIELD *    CLEAR     50  45  81 SW7       30.18R
FORT MADISON * CLEAR     55  46  71 CALM      30.18S
KEOKUK *       CLEAR     52  48  87 SW3       30.18R
OSKALOOSA *      N/A     50  46  87 NW7       30.21R
CENTERVILLE *    N/A     50  48  93 CALM      30.22R
OTTUMWA        CLEAR     46  44  93 W8        30.20R
WASHINGTON *   CLEAR     50  46  87 W7        30.18S
$$

ABBREVIATIONS USED IN REMARKS
   TC - TEMPERATURES IN CELSIUS
  WCI - WIND CHILL INDEX
   HX - HEAT INDEX
  VSB - VISIBILITY
$$





USA.gov is the U.S. government's official web portal to all federal, state and local government web resources and services.